Weather in Passo Fundo

Brazil     28°15′37″S   52°24′40″W
temp.,
°C
wind,
m/s
gust,
m/s
humid.,
%
clouds,
%
prec.,
mm/h
press.,
hPa
HPBL,
m
18 april, sun
sun1800:00+16ese412950 0.0 1016368
03:00+14ese279650 0.0 1015182
06:00+13ese379624 0.0 1016180
09:00+17ese4687100 0.0 1018428
12:00+22ese4565100 0.0 1017907
15:00+23ese45566 0.0 10141215
18:00+20se596945 0.0 1015349
21:00+16se412940 0.0 1017373
19 april, mon
mon1900:00+16ese512955 0.0 1017372
03:00+14e410930 0.0 1017230
06:00+12e39940 0.0 1018192
09:00+17e58740 0.0 1019412
12:00+23e44520 0.0 10181087
15:00+25ese44450 0.0 10151677
18:00+20se34560 0.0 101652
21:00+16se513660 0.0 1017338
20 april, tue
tue2000:00+14e412810 0.0 1018262
03:00+13e410860 0.0 1017202
06:00+12e410925 0.0 1017182
09:00+18ene57710 0.0 1019370
12:00+23ene44520 0.0 10181007
15:00+25e33410 0.0 10151780
18:00+20ese35550 0.0 101668
21:00+15se412710 0.0 1018230
21 april, wed
wed2100:00+14e411800 0.0 1018238
03:00+15ene613820 0.0 1017307
06:00+14ene512900 0.0 1017293
09:00+17ene610730 0.0 1018466
12:00+23ene55510 0.0 10171038
15:00+25ene33420 0.0 10151677
18:00+20ene22580 0.0 101516
21:00+17ese511795 0.0 1016278
22 april, thu
thu2200:00+14e49860 0.0 1016185
03:00+15ene612820 0.0 1015263
06:00+13ene49890 0.0 1015190
09:00+18ne57655 0.0 1016296
12:00+24ne344530 0.0 10151075
15:00+26n243493 0.0 10132467
18:00+22nne0146100 0.0 101220
21:00+19sw4865100 0.0 1014234